TimePDT,TemperatureF,Dew PointF,Humidity,Sea Level PressureIn,VisibilityMPH,Wind Direction,Wind SpeedMPH,Gust SpeedMPH,PrecipitationIn,Events,Conditions,WindDirDegrees,DateUTC
12:15 AM,46.4,46.4,100,30.36,5.0,Calm,Calm,-,N/A,,Mist,0,2013-05-20 07:15:00
12:35 AM,46.4,46.4,100,30.37,10.0,Calm,Calm,-,N/A,,Unknown,0,2013-05-20 07:35:00
12:55 AM,44.6,44.6,100,30.37,9.0,Calm,Calm,-,N/A,,Unknown,0,2013-05-20 07:55:00
1:15 AM,46.4,46.4,100,30.37,10.0,Calm,Calm,-,N/A,,Unknown,0,2013-05-20 08:15:00
1:35 AM,44.6,44.6,100,30.37,8.0,Calm,Calm,-,N/A,,Unknown,0,2013-05-20 08:35:00
1:55 AM,46.4,46.4,100,30.37,10.0,Calm,Calm,-,N/A,,Unknown,0,2013-05-20 08:55:00
2:15 AM,46.4,46.4,100,30.37,10.0,Calm,Calm,-,N/A,,Unknown,0,2013-05-20 09:15:00
2:55 AM,46.4,46.4,100,30.37,10.0,Calm,Calm,-,N/A,,Unknown,0,2013-05-20 09:55:00
3:15 AM,46.4,46.4,100,30.37,10.0,Calm,Calm,-,N/A,,Unknown,0,2013-05-20 10:15:00
3:35 AM,48.2,48.2,100,30.36,10.0,Calm,Calm,-,N/A,,Unknown,0,2013-05-20 10:35:00
3:55 AM,48.2,48.2,100,30.36,10.0,Calm,Calm,-,N/A,,Unknown,0,2013-05-20 10:55:00
4:15 AM,48.2,48.2,100,30.35,10.0,Calm,Calm,-,N/A,,Unknown,0,2013-05-20 11:15:00
4:35 AM,48.2,48.2,100,30.34,10.0,Calm,Calm,-,N/A,,Unknown,0,2013-05-20 11:35:00
4:55 AM,48.2,48.2,100,30.34,10.0,Calm,Calm,-,N/A,,Unknown,0,2013-05-20 11:55:00
5:15 AM,48.2,48.2,100,30.33,10.0,Calm,Calm,-,N/A,,Unknown,0,2013-05-20 12:15:00
5:35 AM,48.2,48.2,100,30.32,10.0,Calm,Calm,-,N/A,,Unknown,0,2013-05-20 12:35:00
5:55 AM,48.2,48.2,100,30.32,10.0,Calm,Calm,-,N/A,,Unknown,0,2013-05-20 12:55:00
6:15 AM,48.2,48.2,100,30.31,10.0,Calm,Calm,-,N/A,,Unknown,0,2013-05-20 13:15:00
6:35 AM,48.2,48.2,100,30.31,10.0,Calm,Calm,-,N/A,,Unknown,0,2013-05-20 13:35:00
6:55 AM,48.2,48.2,100,30.31,10.0,Calm,Calm,-,N/A,,Unknown,0,2013-05-20 13:55:00
7:15 AM,48.2,48.2,100,30.30,10.0,Calm,Calm,-,N/A,,Unknown,0,2013-05-20 14:15:00
7:35 AM,48.2,48.2,100,30.30,10.0,Calm,Calm,-,N/A,,Unknown,0,2013-05-20 14:35:00
7:55 AM,50.0,48.2,94,30.29,10.0,Calm,Calm,-,N/A,,Unknown,0,2013-05-20 14:55:00
8:15 AM,50.0,48.2,94,30.29,10.0,Calm,Calm,-,N/A,,Unknown,0,2013-05-20 15:15:00
8:35 AM,50.0,48.2,94,30.29,10.0,Calm,Calm,-,N/A,,Unknown,0,2013-05-20 15:35:00
8:55 AM,50.0,48.2,94,30.28,10.0,Calm,Calm,-,N/A,,Unknown,0,2013-05-20 15:55:00
9:15 AM,50.0,48.2,94,30.28,10.0,Calm,Calm,-,N/A,,Unknown,0,2013-05-20 16:15:00
9:35 AM,50.0,48.2,94,30.28,10.0,Calm,Calm,-,N/A,,Unknown,0,2013-05-20 16:35:00
9:55 AM,51.8,48.2,88,30.27,10.0,Calm,Calm,-,N/A,,Unknown,0,2013-05-20 16:55:00
10:35 AM,53.6,48.2,82,30.25,10.0,Calm,Calm,-,N/A,,Unknown,0,2013-05-20 17:35:00
10:55 AM,53.6,48.2,82,30.24,10.0,Calm,Calm,-,N/A,,Unknown,0,2013-05-20 17:55:00
11:55 AM,55.4,48.2,77,30.22,10.0,Calm,Calm,-,N/A,,Unknown,0,2013-05-20 18:55:00
12:15 PM,55.4,48.2,77,30.21,10.0,Calm,Calm,-,N/A,,Unknown,0,2013-05-20 19:15:00
12:35 PM,55.4,48.2,77,30.21,10.0,Calm,Calm,-,N/A,,Unknown,0,2013-05-20 19:35:00
12:55 PM,57.2,48.2,72,30.20,10.0,Calm,Calm,-,N/A,,Unknown,0,2013-05-20 19:55:00
1:15 PM,57.2,48.2,72,30.18,10.0,Calm,Calm,-,N/A,,Unknown,0,2013-05-20 20:15:00
1:35 PM,59.0,50.0,72,30.17,10.0,Calm,Calm,-,N/A,,Unknown,0,2013-05-20 20:35:00
1:55 PM,59.0,50.0,72,30.16,10.0,Calm,Calm,-,N/A,,Unknown,0,2013-05-20 20:55:00
2:15 PM,60.8,50.0,68,30.15,10.0,Calm,Calm,-,N/A,,Unknown,0,2013-05-20 21:15:00
2:35 PM,62.6,50.0,63,30.14,10.0,Calm,Calm,-,N/A,,Unknown,0,2013-05-20 21:35:00
2:55 PM,59.0,48.2,67,30.13,10.0,Calm,Calm,-,N/A,,Unknown,0,2013-05-20 21:55:00
3:15 PM,64.4,50.0,59,30.11,10.0,Calm,Calm,-,N/A,,Unknown,0,2013-05-20 22:15:00
3:35 PM,62.6,50.0,63,30.11,10.0,Calm,Calm,-,N/A,,Unknown,0,2013-05-20 22:35:00
3:55 PM,62.6,50.0,63,30.09,10.0,Calm,Calm,-,N/A,,Unknown,0,2013-05-20 22:55:00
4:15 PM,64.4,50.0,59,30.08,10.0,Calm,Calm,-,N/A,,Unknown,0,2013-05-20 23:15:00
4:35 PM,64.4,50.0,59,30.06,10.0,Calm,Calm,-,N/A,,Unknown,0,2013-05-20 23:35:00
4:55 PM,66.2,50.0,56,30.05,10.0,Calm,Calm,-,N/A,,Unknown,0,2013-05-20 23:55:00
5:15 PM,66.2,50.0,56,30.04,10.0,Calm,Calm,-,N/A,,Unknown,0,2013-05-21 00:15:00
5:35 PM,66.2,50.0,56,30.02,10.0,North,5.8,-,N/A,,Unknown,360,2013-05-21 00:35:00
5:55 PM,66.2,50.0,56,30.02,10.0,Calm,Calm,-,N/A,,Unknown,0,2013-05-21 00:55:00
6:15 PM,66.2,50.0,56,30.01,10.0,NNW,3.5,-,N/A,,Unknown,330,2013-05-21 01:15:00
6:35 PM,66.2,50.0,56,30.00,10.0,NNW,4.6,-,N/A,,Unknown,330,2013-05-21 01:35:00
6:55 PM,64.4,48.2,56,29.99,10.0,Calm,Calm,-,N/A,,Unknown,0,2013-05-21 01:55:00
7:15 PM,62.6,50.0,63,29.99,10.0,Calm,Calm,-,N/A,,Unknown,0,2013-05-21 02:15:00
7:35 PM,62.6,50.0,63,29.98,10.0,Calm,Calm,-,N/A,,Unknown,0,2013-05-21 02:35:00
7:55 PM,62.6,48.2,59,29.98,10.0,Calm,Calm,-,N/A,,Unknown,0,2013-05-21 02:55:00
8:15 PM,60.8,50.0,68,29.97,10.0,Calm,Calm,-,N/A,,Unknown,0,2013-05-21 03:15:00
8:35 PM,59.0,50.0,72,29.97,10.0,Calm,Calm,-,N/A,,Unknown,0,2013-05-21 03:35:00
8:55 PM,59.0,50.0,72,29.96,10.0,Calm,Calm,-,N/A,,Unknown,0,2013-05-21 03:55:00
9:15 PM,59.0,48.2,67,29.96,10.0,NW,5.8,-,N/A,,Unknown,320,2013-05-21 04:15:00
9:35 PM,57.2,46.4,67,29.96,10.0,Calm,Calm,-,N/A,,Unknown,0,2013-05-21 04:35:00
9:55 PM,57.2,48.2,72,29.95,10.0,Calm,Calm,-,N/A,,Unknown,0,2013-05-21 04:55:00
10:15 PM,57.2,46.4,67,29.95,10.0,Calm,Calm,-,N/A,,Unknown,0,2013-05-21 05:15:00
10:35 PM,57.2,46.4,67,29.94,10.0,Calm,Calm,-,N/A,,Unknown,0,2013-05-21 05:35:00
10:55 PM,55.4,46.4,72,29.93,10.0,Calm,Calm,-,N/A,,Unknown,0,2013-05-21 05:55:00
11:15 PM,55.4,48.2,77,29.93,10.0,Calm,Calm,-,N/A,,Unknown,0,2013-05-21 06:15:00